This demonstration page uses our WeatherBlox Daily Observations layout. Learn more.

Hourly Observations for February 21, 2017

Temp ( °F °C ) Dew Point ( °F °C ) Humidity (%) Winds ( mph kmh ) Pressure ( in mb ) Visibility ( mi km ) Precip ( " mm )
12:54 am 00:54 Clear 31 -0.6 29 -1.7 92 92 N 5 7 29.99 1016 10 16.0934 0 0
1:54 am 01:54 Clear 31 -0.6 29 -1.7 92 92 N 3 6 29.99 1016 10 16.0934 0 0
2:54 am 02:54 Clear 32 0 31 -0.6 96 96 Calm 29.98 1015 10 16.0934 0 0
3:09 am 03:09 Clear with Mist and Fog 30 -1.1 30 -1.1 100 100 Calm 30.03 1017 3 4.82802 0 0
3:54 am 03:54 Clear 32 0 30 -1.1 92 92 Calm 29.98 1015 10 16.0934 0 0
4:54 am 04:54 Clear 28 -2.2 26 -3.3 92 92 NNE 5 7 30.01 1016 10 16.0934 0 0
5:54 am 05:54 Clear 29 -1.7 27 -2.8 92 92 Calm 30.01 1016 10 16.0934 0 0
6:54 am 06:54 Clear 27 -2.8 24 -4.4 89 89 ESE 3 6 30.03 1017 10 16.0934 0 0
7:54 am 07:54 Sunny 32 0 30 -1.1 92 92 Calm 30.04 1017 10 16.0934 0 0
8:54 am 08:54 Sunny 41 5 38 3.3 89 89 S 6 9 30.03 1017 10 16.0934 0 0
9:54 am 09:54 Sunny 53 11.7 40 4.4 61 61 SW 9 15 30.02 1017 10 16.0934 0 0
10:54 am 10:54 Sunny 63 17.2 39 3.9 41 41 SSW 13 20 29.99 1016 10 16.0934 0 0
11:54 am 11:54 Sunny 68 20 35 1.7 30 30 SW 15 24 29.96 1015 10 16.0934 0 0
12:54 pm 12:54 Sunny 71 21.7 31 -0.6 23 23 SW 15 24 29.93 1014 10 16.0934 0 0
1:54 pm 13:54 Sunny 73 22.8 30 -1.1 20 20 SW 17 28 29.89 1012 10 16.0934 0 0
2:54 pm 14:54 Sunny 74 23.3 31 -0.6 20 20 SW 15 24 29.86 1011 10 16.0934 0 0
3:54 pm 15:54 Sunny 76 24.4 28 -2.2 17 17 SW 16 26 29.84 1010 10 16.0934 0 0
4:54 pm 16:54 Sunny 74 23.3 28 -2.2 18 18 SSW 15 24 29.83 1010 10 16.0934 0 0
5:54 pm 17:54 Sunny 66 18.9 30 -1.1 26 26 S 9 15 29.83 1010 10 16.0934 0 0
6:54 pm 18:54 Clear 54 12.2 29 -1.7 38 38 S 9 15 29.83 1010 10 16.0934 0 0
7:54 pm 19:54 Clear 54 12.2 30 -1.1 40 40 S 12 19 29.82 1010 10 16.0934 0 0
8:54 pm 20:54 Clear 57 13.9 32 0 39 39 S 12 19 29.8 1009 10 16.0934 0 0
9:54 pm 21:54 Clear 56 13.3 33 0.6 42 42 S 13 20 29.79 1009 10 16.0934 0 0
10:54 pm 22:54 Clear 56 13.3 34 1.1 44 44 S 12 19 29.77 1008 10 16.0934 0 0
11:54 pm 23:54 Clear 54 12.2 35 1.7 49 49 S 12 19 29.75 1008 10 16.0934 0 0

Powered by AerisWeather